#timestamp,LO_Frequency,Hit,Temp,Hum 
1480165215.9,286047020.3,N,0.0,0.0
1480165235.7,286047019.4,N,0.0,0.0
1480165255.6,286047020.8,N,0.0,0.0
1480165275.4,286047020.8,N,0.0,0.0
1480165295.2,286047021.5,N,0.0,0.0
1480165315.1,286047021.6,N,0.0,0.0
1480165316.0,286047021.6,N,0.0,0.0
1480165335.8,286047019.0,N,0.0,0.0
1480165355.7,286047019.8,N,0.0,0.0
1480165375.5,286047019.6,N,0.0,0.0
1480165395.3,286047020.1,N,0.0,0.0
1480165415.2,286047017.4,N,0.0,0.0
1480165435.9,286047020.3,N,0.0,0.0
1480165455.7,286047020.1,N,0.0,0.0
1480165475.6,286047021.5,N,0.0,0.0
1480165495.4,286047019.8,N,0.0,0.0
1480165515.3,286047018.3,N,0.0,0.0
1480165535.1,286047017.1,N,0.0,0.0
1480165536.0,286047017.1,N,0.0,0.0
1480165555.8,286047015.2,N,0.0,0.0
1480165575.7,286047012.5,N,0.0,0.0
1480165595.5,286047010.9,N,0.0,0.0
1480165615.3,286047011.6,N,0.0,0.0
1480165635.2,286047009.9,N,0.0,0.0
1480165655.0,286047008.2,N,0.0,0.0
1480165655.9,286047008.2,N,0.0,0.0
1480165675.8,286047009.0,N,0.0,0.0
1480165695.6,286047006.5,N,0.0,0.0
1480165715.4,286047006.6,N,0.0,0.0
1480165735.3,286047007.4,N,0.0,0.0
1480165755.1,286047005.7,N,0.0,0.0
1480165775.9,286047003.3,N,0.0,0.0
1480165795.7,286047003.9,N,0.0,0.0
1480165815.5,286047001.4,N,0.0,0.0
1480165835.4,286047002.2,N,0.0,0.0
1480165855.2,286046999.7,N,0.0,0.0
1480165875.0,286047000.4,N,0.0,0.0
1480165875.9,286047000.4,N,0.0,0.0
1480165895.8,286046998.6,N,0.0,0.0
1480165915.6,286046999.4,N,0.0,0.0
1480165935.5,286046996.6,N,0.0,0.0
1480165955.3,286046997.7,N,0.0,0.0
1480165975.1,286046995.3,N,0.0,0.0
1480165995.9,286046995.5,N,0.0,0.0
1480166015.7,286046996.0,N,0.0,0.0
1480166035.6,286046993.6,N,0.0,0.0
1480166055.4,286046994.1,N,0.0,0.0
1480166075.2,286046994.8,N,0.0,0.0
1480166095.1,286046992.1,N,0.0,0.0
1480166096.0,286046992.1,N,0.0,0.0
1480166115.8,286046992.4,N,0.0,0.0
1480166135.7,286046992.6,N,0.0,0.0
1480166155.5,286046993.0,N,0.0,0.0
1480166175.3,286046990.3,N,0.0,0.0
1480166195.2,286046991.0,N,0.0,0.0
1480166215.9,286046988.5,N,0.0,0.0
1480166235.7,286046988.7,N,0.0,0.0
1480166255.6,286046989.8,N,0.0,0.0
1480166275.4,286046987.0,N,0.0,0.0
1480166295.2,286046987.5,N,0.0,0.0
1480166315.1,286046987.6,N,0.0,0.0
1480166316.0,286046987.6,N,0.0,0.0
1480166335.8,286046987.8,N,0.0,0.0
1480166355.7,286046985.4,N,0.0,0.0
1480166375.5,286046985.8,N,0.0,0.0
1480166395.3,286046985.9,N,0.0,0.0
1480166415.2,286046986.1,N,0.0,0.0
1480166435.0,286046983.8,N,0.0,0.0
1480166435.9,286046983.8,N,0.0,0.0
1480166455.8,286046984.2,N,0.0,0.0
1480166475.6,286046984.4,N,0.0,0.0
1480166495.4,286046985.2,N,0.0,0.0
1480166515.3,286046985.2,N,0.0,0.0
1480166535.1,286046982.1,N,0.0,0.0
1480166555.9,286046982.2,N,0.0,0.0
1480166575.7,286046982.7,N,0.0,0.0
1480166595.5,286046982.6,N,0.0,0.0
1480166615.4,286046983.0,N,0.0,0.0
1480166635.2,286046983.5,N,0.0,0.0
1480166655.0,286046983.6,N,0.0,0.0
1480166655.9,286046983.6,N,0.0,0.0
1480166675.8,286046983.4,N,0.0,0.0
1480166695.6,286046983.6,N,0.0,0.0
1480166715.5,286046981.1,N,0.0,0.0
1480166735.3,286046981.4,N,0.0,0.0
1480166755.1,286046979.4,N,0.0,0.0
1480166775.9,286046979.7,N,0.0,0.0
1480166795.7,286046979.5,N,0.0,0.0
1480166815.6,286046979.5,N,0.0,0.0
1480166835.4,286046979.1,N,0.0,0.0
1480166855.2,286046979.5,N,0.0,0.0
1480166875.1,286046980.0,N,0.0,0.0
1480166876.0,286046980.0,N,0.0,0.0
1480166895.8,286046980.0,N,0.0,0.0
1480166915.7,286046977.5,N,0.0,0.0
1480166935.5,286046978.1,N,0.0,0.0
1480166955.3,286046978.8,N,0.0,0.0
1480166975.2,286046976.4,N,0.0,0.0
1480166995.9,286046977.0,N,0.0,0.0
1480167015.7,286046977.0,N,0.0,0.0
1480167035.6,286046976.6,N,0.0,0.0
1480167055.4,286046976.3,N,0.0,0.0
1480167075.3,286046976.1,N,0.0,0.0
1480167095.1,286046976.5,N,0.0,0.0
1480167096.0,286046976.5,N,0.0,0.0
1480167115.8,286046975.9,N,0.0,0.0
1480167135.7,286046975.8,N,0.0,0.0
1480167155.5,286046976.1,N,0.0,0.0
1480167175.4,286046977.0,N,0.0,0.0
1480167195.2,286046976.9,N,0.0,0.0
1480167215.0,286046975.9,N,0.0,0.0
1480167215.9,286046975.9,N,0.0,0.0
1480167235.8,286046975.8,N,0.0,0.0
1480167255.6,286046976.1,N,0.0,0.0
1480167275.4,286046975.8,N,0.0,0.0
1480167295.3,286046976.0,N,0.0,0.0
1480167315.1,286046975.9,N,0.0,0.0
1480167335.9,286046975.7,N,0.0,0.0
1480167355.7,286046978.8,N,0.0,0.0
1480167375.5,286046978.7,N,0.0,0.0
1480167395.4,286046978.5,N,0.0,0.0
1480167415.2,286046978.2,N,0.0,0.0
1480167435.0,286046978.2,N,0.0,0.0
1480167436.0,286046978.2,N,0.0,0.0
1480167455.8,286046978.3,N,0.0,0.0
1480167475.6,286046980.0,N,0.0,0.0
1480167495.5,286046980.2,N,0.0,0.0
1480167515.3,286046980.0,N,0.0,0.0
1480167535.1,286046977.3,N,0.0,0.0
1480167555.9,286046980.3,N,0.0,0.0
1480167575.7,286046980.2,N,0.0,0.0
1480167595.6,286046977.7,N,0.0,0.0
1480167615.4,286046977.3,N,0.0,0.0
1480167635.2,286046979.8,N,0.0,0.0
1480167655.1,286046979.1,N,0.0,0.0
1480167656.0,286046979.1,N,0.0,0.0
1480167675.8,286046980.2,N,0.0,0.0
1480167695.6,286046980.1,N,0.0,0.0
1480167715.5,286046979.6,N,0.0,0.0
1480167735.3,286046979.0,N,0.0,0.0
1480167755.2,286046978.9,N,0.0,0.0
1480167775.9,286046981.6,N,0.0,0.0
1480167795.7,286046980.8,N,0.0,0.0
1480167815.6,286046981.3,N,0.0,0.0
1480167835.4,286046980.7,N,0.0,0.0
1480167855.2,286046980.5,N,0.0,0.0
1480167875.1,286046983.4,N,0.0,0.0
1480167876.0,286046983.4,N,0.0,0.0
1480167895.8,286046982.3,N,0.0,0.0
1480167915.7,286046982.3,N,0.0,0.0
1480167935.5,286046982.5,N,0.0,0.0
1480167955.3,286046982.6,N,0.0,0.0
1480167975.2,286046985.0,N,0.0,0.0
1480167995.0,286046984.0,N,0.0,0.0
1480167995.9,286046984.0,N,0.0,0.0
1480168015.8,286046984.1,N,0.0,0.0
1480168035.6,286046984.1,N,0.0,0.0
1480168055.4,286046984.2,N,0.0,0.0
1480168075.3,286046983.7,N,0.0,0.0
1480168095.1,286046986.5,N,0.0,0.0
1480168115.9,286046986.0,N,0.0,0.0
1480168135.7,286046985.7,N,0.0,0.0
1480168155.5,286046985.4,N,0.0,0.0
1480168175.4,286046988.4,N,0.0,0.0
1480168195.2,286046988.3,N,0.0,0.0
1480168215.0,286046985.9,N,0.0,0.0
1480168215.9,286046985.9,N,0.0,0.0
1480168235.8,286046985.6,N,0.0,0.0
1480168255.6,286046988.0,N,0.0,0.0
1480168275.5,286046987.7,N,0.0,0.0
1480168295.3,286046987.3,N,0.0,0.0
1480168315.1,286046990.0,N,0.0,0.0
1480168335.9,286046989.9,N,0.0,0.0
1480168355.7,286046989.9,N,0.0,0.0
1480168375.6,286046989.0,N,0.0,0.0
1480168395.4,286046988.9,N,0.0,0.0
1480168415.2,286046991.6,N,0.0,0.0
1480168435.1,286046990.8,N,0.0,0.0
1480168436.0,286046990.8,N,0.0,0.0
1480168455.8,286046990.2,N,0.0,0.0
1480168475.6,286046990.2,N,0.0,0.0
1480168495.5,286046992.8,N,0.0,0.0
1480168515.3,286046993.1,N,0.0,0.0
1480168535.2,286046992.9,N,0.0,0.0
1480168555.9,286046992.4,N,0.0,0.0
1480168575.7,286046991.8,N,0.0,0.0
1480168595.6,286046994.5,N,0.0,0.0
1480168615.4,286046994.2,N,0.0,0.0
1480168635.3,286046996.3,N,0.0,0.0
1480168655.1,286046993.5,N,0.0,0.0
1480168656.0,286046993.5,N,0.0,0.0
1480168675.8,286046995.7,N,0.0,0.0
1480168695.7,286046997.9,N,0.0,0.0
1480168715.5,286046997.4,N,0.0,0.0
1480168735.3,286046996.6,N,0.0,0.0
1480168755.2,286046997.8,N,0.0,0.0
1480168775.0,286046997.9,N,0.0,0.0
1480168775.9,286046997.9,N,0.0,0.0
1480168795.8,286046994.9,N,0.0,0.0
